Overview Statistics Trail Chart Weather Telemetry Raw packets
 

This is the latest recevied weather packets stored in our database for station/object 4S6DRJ-13. If no packets are shown the sender has not sent any weather packets the latest 10 day(s).

<< 290 291 292 293 294 295 296 >>
Time Temp. Humidity Pressure Rain* Wind** Luminosity Snow
1788042204 27.78° C 85% 1009 hPa 0 mm 1.34 m/s, 192° 0 W/m² -
1788042143 27.78° C 85% 1009.1 hPa 0 mm 1.34 m/s, 210° 0 W/m² -
1788042082 27.78° C 85% 1009.2 hPa 0 mm 0.45 m/s, 185° 0 W/m² -
1788042021 27.78° C 85% 1008.9 hPa 0 mm 1.79 m/s, 226° 0 W/m² -
1788041960 27.78° C 85% 1008.9 hPa 0 mm 0.89 m/s, 222° 0 W/m² -
1788041899 27.78° C 85% 1008.7 hPa 0 mm 0.89 m/s, 222° 0 W/m² -
1788041838 27.78° C 85% 1009 hPa 0 mm 0.89 m/s, 228° 0 W/m² -
1788041777 27.78° C 85% 1008.8 hPa 0 mm 0.89 m/s, 220° 0 W/m² -
1788041716 27.78° C 85% 1008.8 hPa 0 mm 0 m/s 0 W/m² -
1788041655 27.78° C 85% 1008.8 hPa 0 mm 1.79 m/s, 255° 0 W/m² -
1788041594 27.78° C 85% 1009 hPa 0 mm 0.89 m/s, 247° 0 W/m² -
1788041533 27.78° C 84% 1008.8 hPa 0 mm 0 m/s 0 W/m² -
1788041472 27.78° C 84% 1009 hPa 0 mm 0.89 m/s, 233° 0 W/m² -
1788041411 27.78° C 84% 1008.8 hPa 0 mm 0.45 m/s, 188° 0 W/m² -
1788041350 27.78° C 84% 1008.7 hPa 0 mm 0 m/s 0 W/m² -
1788041289 27.78° C 84% 1008.8 hPa 0 mm 0.45 m/s, 212° 0 W/m² -
1788041228 27.78° C 84% 1008.9 hPa 0 mm 0.45 m/s, 241° 0 W/m² -
1788041167 27.78° C 84% 1008.9 hPa 0 mm 0.45 m/s, 240° 0 W/m² -
1788041106 27.78° C 84% 1008.9 hPa 0 mm 0.45 m/s, 235° 0 W/m² -
1788041045 27.78° C 84% 1008.8 hPa 0 mm 0.89 m/s, 213° 0 W/m² -
1788040984 27.78° C 84% 1008.9 hPa 0 mm 0.89 m/s, 199° 0 W/m² -
1788040922 27.78° C 84% 1008.8 hPa 0 mm 0.89 m/s, 159° 0 W/m² -
1788040862 27.78° C 84% 1008.9 hPa 0 mm 0.89 m/s, 256° 0 W/m² -
1788040740 27.78° C 84% 1008.8 hPa 0 mm 0.89 m/s, 263° 0 W/m² -
1788040679 27.78° C 84% 1008.8 hPa 0 mm 0.89 m/s, 215° 0 W/m² -

* Rain latest hour (hover to see other rain measurements)
** Current wind speed in m/s (hover to see current wind gust speed)